Location: Mexico
(19.4000°N, 99.1500°W)
Time: 23:53:51
(UTC-06:00)

ISS - Pass Details

Date: 15 October 2017
Orbit: 400 x 408 km, 51.6° (Epoch: 24 October)

Event Time Altitude Azimuth Distance (km) Brightness Sun altitude
Rises 19:47:00 0° 330° (NNW) 2,317 0.4 -22.8°
Reaches altitude 10° 19:49:09 10° 339° (NNW) 1,457 -0.8 -23.4°
Enters shadow 19:49:32 13° 341° (NNW) 1,312 -1.1 -23.4°
